User: anonymous   Login
Location: Unspecified
(0.0000°N, 0.0000°E)
Time: 12:37:57
(UTC+00:00)
Language:

GOSAT - Orbit

View from above orbital plane
View from above orbital plane
View from above satellite
View from above satellite

Ground track
Ground track

The orbit data is extracted from the following two-line orbital elements,

1 33492U 09002A   18172.17002078  .00000024  00000-0  12834-4 0  9994
2 33492  98.1514 286.3364 0001175  85.8001 274.3339 14.67525061503948
Epoch (UTC): 21 June 2018 04:04:49
Eccentricity: 0.0001175
inclination: 98.1514°
perigee height: 668 km
apogee height: 670 km
right ascension of ascending node: 286.3364°
argument of perigee: 85.8001°
revolutions per day: 14.67525061
mean anomaly at epoch: 274.3339°
orbit number at epoch: 50394

The dashed part of the orbit path shows where the satellite is in the earth's shadow,  

DLR